Location: Hertford
(51.8000°N, 0.0667°W)
Time: 13:38:05
(UTC+00:00)

Abrixas rocket - Pass Details

Date: 18 September 2020
Orbit: 328 x 335 km, 48.4° (Epoch: 25 October)

Event Time Altitude Azimuth Distance (km) Brightness Sun altitude
Rises 19:23:59 0° 250° (WSW) 2,093 6.7 -12.5°
Reaches altitude 10° 19:26:02 10° 242° (WSW) 1,256 5.3 -12.8°
Maximum altitude 19:28:40 37° 172° (S) 532 2.5 -13.2°
Enters shadow 19:29:30 29° 131° (SE) 642 2.6 -13.3°
